| time (UTC) | temp F | wind direction | speed MPH | gust MPH | rain 1hr in | rain 24hr in | rain mn in | humidity % | barometer mb |
| 20260506212118 | 50 | 235 | 4.0 | 10.0 | 0.00 | 0.00 | 0.00 | 67 | 1012.4 |
| 20260506211614 | 50 | 266 | 3.0 | 5.0 | 0.00 | 0.00 | 0.00 | 66 | 1012.3 |
| 20260506211111 | 50 | 217 | 4.0 | 9.0 | 0.00 | 0.00 | 0.00 | 64 | 1012.2 |
| 20260506210608 | 50 | 253 | 5.0 | 11.0 | 0.00 | 0.00 | 0.00 | 64 | 1012.4 |
| 20260506210105 | 51 | 173 | 5.0 | 13.0 | 0.00 | 0.00 | 0.00 | 62 | 1011.9 |
| 20260506205602 | 52 | 177 | 11.0 | 20.0 | 0.00 | 0.00 | 0.00 | 59 | 1012.0 |
| 20260506205056 | 53 | 45 | 2.0 | 7.0 | 0.00 | 0.00 | 0.00 | 53 | 1012.1 |
| 20260506204555 | 55 | 121 | 3.0 | 5.0 | 0.00 | 0.00 | 0.00 | 52 | 1011.8 |
| 20260506204051 | 54 | 194 | 1.0 | 8.0 | 0.00 | 0.00 | 0.00 | 52 | 1012.0 |
| 20260506203550 | 53 | 175 | 3.0 | 9.0 | 0.00 | 0.00 | 0.00 | 54 | 1012.0 |
| 20260506203046 | 52 | 188 | 3.0 | 6.0 | 0.00 | 0.00 | 0.00 | 55 | 1012.0 |
| 20260506202544 | 52 | 152 | 3.0 | 4.0 | 0.00 | 0.00 | 0.00 | 55 | 1012.2 |
| 20260506202040 | 52 | 221 | 4.0 | 7.0 | 0.00 | 0.00 | 0.00 | 56 | 1011.9 |
| 20260506201538 | 51 | 148 | 6.0 | 9.0 | 0.00 | 0.00 | 0.00 | 55 | 1011.9 |
| 20260506201034 | 51 | 180 | 0.0 | 5.0 | 0.00 | 0.00 | 0.00 | 57 | 1012.0 |
| 20260506200530 | 51 | 139 | 2.0 | 4.0 | 0.00 | 0.00 | 0.00 | 57 | 1011.6 |
| 20260506200027 | 52 | 81 | 3.0 | 12.0 | 0.00 | 0.00 | 0.00 | 58 | 1012.2 |
| 20260506195524 | 51 | 151 | 7.0 | 7.0 | 0.00 | 0.00 | 0.00 | 56 | 1011.8 |
| 20260506195020 | 52 | 204 | 5.0 | 5.0 | 0.00 | 0.00 | 0.00 | 56 | 1011.9 |
| 20260506194518 | 51 | 152 | 3.0 | 6.0 | 0.00 | 0.00 | 0.00 | 58 | 1011.9 |
| 20260506194014 | 51 | 83 | 3.0 | 5.0 | 0.00 | 0.00 | 0.00 | 59 | 1011.6 |
| 20260506193512 | 51 | 94 | 3.0 | 4.0 | 0.00 | 0.00 | 0.00 | 58 | 1011.5 |
| 20260506193009 | 51 | 85 | 2.0 | 3.0 | 0.00 | 0.00 | 0.00 | 60 | 1011.5 |
| 20260506192505 | 51 | 45 | 3.0 | 8.0 | 0.00 | 0.00 | 0.00 | 60 | 1011.6 |
| 20260506192001 | 51 | 345 | 0.0 | 3.0 | 0.00 | 0.00 | 0.00 | 61 | 1011.8 |
| 20260506191458 | 50 | 353 | 0.0 | 5.0 | 0.00 | 0.00 | 0.00 | 62 | 1011.6 |
| 20260506190955 | 50 | 143 | 4.0 | 4.0 | 0.00 | 0.00 | 0.00 | 63 | 1011.5 |
| 20260506190452 | 50 | 114 | 1.0 | 5.0 | 0.00 | 0.00 | 0.00 | 63 | 1011.8 |
| 20260506185948 | 50 | 212 | 0.0 | 5.0 | 0.00 | 0.00 | 0.00 | 63 | 1011.8 |
| 20260506185446 | 49 | 160 | 5.0 | 8.0 | 0.00 | 0.00 | 0.00 | 63 | 1011.8 |
| 20260506184942 | 49 | 32 | 0.0 | 8.0 | 0.00 | 0.00 | 0.00 | 63 | 1011.9 |
| 20260506184439 | 50 | 140 | 3.0 | 5.0 | 0.00 | 0.00 | 0.00 | 63 | 1011.9 |
| 20260506183937 | 49 | 148 | 3.0 | 6.0 | 0.00 | 0.00 | 0.00 | 64 | 1011.8 |
| 20260506183432 | 49 | 0 | 2.0 | 4.0 | 0.00 | 0.00 | 0.00 | 65 | 1011.8 |
| 20260506182929 | 49 | 90 | 0.0 | 7.0 | 0.00 | 0.00 | 0.00 | 65 | 1011.9 |
| 20260506182426 | 48 | 159 | 2.0 | 5.0 | 0.00 | 0.00 | 0.00 | 65 | 1011.8 |
| 20260506181924 | 49 | 130 | 7.0 | 8.0 | 0.00 | 0.00 | 0.00 | 65 | 1011.6 |
| 20260506181422 | 49 | 151 | 2.0 | 4.0 | 0.00 | 0.00 | 0.00 | 65 | 1011.4 |
| 20260506180918 | 48 | 163 | 3.0 | 6.0 | 0.00 | 0.00 | 0.00 | 67 | 1011.9 |
| 20260506180414 | 49 | 45 | 2.0 | 3.0 | 0.00 | 0.00 | 0.00 | 67 | 1011.5 |
| 20260506175911 | 47 | 29 | 2.0 | 5.0 | 0.00 | 0.00 | 0.00 | 67 | 1011.6 |
| 20260506175408 | 48 | 123 | 4.0 | 6.0 | 0.00 | 0.00 | 0.00 | 67 | 1011.5 |
| 20260506174905 | 48 | 189 | 2.0 | 6.0 | 0.00 | 0.00 | 0.00 | 66 | 1011.5 |
| 20260506174403 | 48 | 163 | 3.0 | 5.0 | 0.00 | 0.00 | 0.00 | 66 | 1011.4 |
| 20260506173900 | 48 | 50 | 3.0 | 5.0 | 0.00 | 0.00 | 0.00 | 66 | 1011.5 |
| 20260506173356 | 48 | 90 | 1.0 | 3.0 | 0.00 | 0.00 | 0.00 | 67 | 1011.6 |
| 20260506172853 | 47 | 146 | 2.0 | 3.0 | 0.00 | 0.00 | 0.00 | 69 | 1011.3 |
| 20260506172350 | 46 | 52 | 2.0 | 2.0 | 0.00 | 0.00 | 0.00 | 72 | 1011.5 |
| 20260506171847 | 46 | 32 | 0.0 | 3.0 | 0.00 | 0.00 | 0.00 | 73 | 1011.5 |
| 20260506171344 | 46 | 23 | 0.0 | 3.0 | 0.00 | 0.00 | 0.00 | 73 | 1011.6 |
| 20260506170842 | 46 | 102 | 1.0 | 4.0 | 0.00 | 0.00 | 0.00 | 74 | 1011.6 |
| 20260506170338 | 45 | 74 | 0.0 | 2.0 | 0.00 | 0.00 | 0.00 | 74 | 1011.6 |
| 20260506165837 | 45 | 180 | 0.0 | 3.0 | 0.00 | 0.00 | 0.00 | 75 | 1011.3 |
| 20260506165335 | 45 | 185 | 3.0 | 3.0 | 0.00 | 0.00 | 0.00 | 75 | 1011.5 |
| 20260506164831 | 45 | 145 | 1.0 | 3.0 | 0.00 | 0.00 | 0.00 | 76 | 1011.4 |
| 20260506164328 | 44 | 158 | 0.0 | 3.0 | 0.00 | 0.00 | 0.00 | 77 | 1011.2 |
| 20260506163825 | 44 | 75 | 1.0 | 3.0 | 0.00 | 0.00 | 0.00 | 77 | 1011.4 |
| 20260506163320 | 44 | 66 | 1.0 | 2.0 | 0.00 | 0.00 | 0.00 | 77 | 1011.4 |
| 20260506162815 | 44 | 0 | 0.0 | 3.0 | 0.00 | 0.00 | 0.00 | 78 | 1011.5 |
| 20260506162314 | 44 | 68 | 0.0 | 2.0 | 0.00 | 0.00 | 0.00 | 80 | 1011.3 |
| 20260506161811 | 44 | 66 | 0.0 | 2.0 | 0.00 | 0.00 | 0.00 | 80 | 1011.2 |
| 20260506161308 | 44 | 144 | 2.0 | 2.0 | 0.00 | 0.00 | 0.00 | 80 | 1011.5 |
| 20260506160806 | 43 | 126 | 0.0 | 3.0 | 0.00 | 0.00 | 0.00 | 79 | 1011.4 |
| 20260506160302 | 44 | 124 | 2.0 | 2.0 | 0.00 | 0.00 | 0.00 | 80 | 1011.2 |
| 20260506155801 | 43 | 69 | 0.0 | 1.0 | 0.00 | 0.00 | 0.00 | 81 | 1011.3 |
| 20260506155257 | 43 | 131 | 1.0 | 2.0 | 0.00 | 0.00 | 0.00 | 81 | 1011.4 |
| 20260506153410 | 42 | 12 | 1.0 | 2.0 | 0.00 | 0.00 | 0.00 | 84 | 1011.3 |
| 20260506152907 | 42 | 41 | 0.0 | 2.0 | 0.00 | 0.00 | 0.00 | 85 | 1011.2 |
| 20260506152404 | 42 | 71 | 0.0 | 2.0 | 0.00 | 0.00 | 0.00 | 87 | 1011.3 |
| 20260506151903 | 41 | 75 | 0.0 | 2.0 | 0.00 | 0.00 | 0.00 | 88 | 1011.4 |
| 20260506151359 | 41 | 98 | 0.0 | 1.0 | 0.00 | 0.00 | 0.00 | 90 | 1011.2 |
| 20260506150857 | 41 | 165 | 0.0 | 1.0 | 0.00 | 0.00 | 0.00 | 89 | 1011.1 |
| 20260506150353 | 41 | 77 | 0.0 | 0.0 | 0.00 | 0.00 | 0.00 | 89 | 1011.3 |
| 20260506145850 | 41 | 77 | 0.0 | 1.0 | 0.00 | 0.00 | 0.00 | 89 | 1011.2 |
| 20260506145346 | 41 | 14 | 0.0 | 0.0 | 0.00 | 0.00 | 0.00 | 88 | 1011.1 |
| 20260506144844 | 41 | 14 | 0.0 | 0.0 | 0.00 | 0.00 | 0.00 | 87 | 1011.2 |
| 20260506144340 | 41 | 14 | 0.0 | 0.0 | 0.00 | 0.00 | 0.00 | 87 | 1011.2 |
| 20260506143838 | 41 | 14 | 0.0 | 0.0 | 0.00 | 0.00 | 0.00 | 88 | 1011.3 |
| 20260506143335 | 40 | 14 | 0.0 | 0.0 | 0.00 | 0.00 | 0.00 | 88 | 1011.0 |
| 20260506142833 | 40 | 14 | 0.0 | 0.0 | 0.00 | 0.00 | 0.00 | 89 | 1011.2 |
| 20260506142331 | 40 | 14 | 0.0 | 0.0 | 0.00 | 0.00 | 0.00 | 88 | 1011.2 |
| 20260506141829 | 40 | 14 | 0.0 | 0.0 | 0.00 | 0.00 | 0.00 | 89 | 1011.2 |
| 20260506141327 | 40 | 14 | 0.0 | 0.0 | 0.00 | 0.00 | 0.00 | 89 | 1011.0 |
| 20260506140825 | 39 | 14 | 0.0 | 0.0 | 0.00 | 0.00 | 0.00 | 90 | 1011.4 |
| 20260506140321 | 39 | 14 | 0.0 | 0.0 | 0.00 | 0.00 | 0.00 | 91 | 1011.4 |
| 20260506135818 | 39 | 14 | 0.0 | 0.0 | 0.00 | 0.00 | 0.00 | 91 | 1011.3 |
| 20260506135314 | 39 | 14 | 0.0 | 1.0 | 0.00 | 0.00 | 0.00 | 91 | 1011.5 |
| 20260506134811 | 39 | 74 | 0.0 | 0.0 | 0.00 | 0.00 | 0.00 | 91 | 1011.1 |
| 20260506134308 | 39 | 74 | 0.0 | 0.0 | 0.00 | 0.00 | 0.00 | 90 | 1011.1 |
| 20260506133805 | 39 | 74 | 0.0 | 0.0 | 0.00 | 0.00 | 0.00 | 90 | 1011.2 |
| 20260506133302 | 39 | 74 | 0.0 | 0.0 | 0.00 | 0.00 | 0.00 | 90 | 1011.1 |
| 20260506132758 | 40 | 74 | 0.0 | 0.0 | 0.00 | 0.00 | 0.00 | 90 | 1011.3 |
| 20260506132255 | 40 | 74 | 0.0 | 0.0 | 0.00 | 0.00 | 0.00 | 88 | 1011.3 |
| 20260506131754 | 41 | 75 | 0.0 | 0.0 | 0.00 | 0.00 | 0.00 | 88 | 1011.1 |
| 20260506131249 | 41 | 75 | 0.0 | 0.0 | 0.00 | 0.00 | 0.00 | 88 | 1011.1 |
| 20260506130746 | 41 | 75 | 0.0 | 1.0 | 0.00 | 0.00 | 0.00 | 88 | 1010.9 |
| 20260506130243 | 41 | 15 | 0.0 | 0.0 | 0.00 | 0.00 | 0.00 | 87 | 1011.1 |
| 20260506125741 | 42 | 15 | 0.0 | 0.0 | 0.00 | 0.00 | 0.00 | 85 | 1011.1 |
| 20260506125239 | 42 | 15 | 0.0 | 0.0 | 0.00 | 0.00 | 0.00 | 84 | 1011.3 |
| 20260506124737 | 41 | 15 | 0.0 | 0.0 | 0.00 | 0.00 | 0.00 | 85 | 1011.2 |
| 20260506124234 | 42 | 15 | 0.0 | 1.0 | 0.00 | 0.00 | 0.00 | 85 | 1011.1 |
| 20260506123731 | 41 | 23 | 0.0 | 0.0 | 0.00 | 0.00 | 0.00 | 84 | 1011.2 |
| 20260506123230 | 42 | 23 | 0.0 | 0.0 | 0.00 | 0.00 | 0.00 | 84 | 1011.0 |
| 20260506122726 | 42 | 23 | 0.0 | 1.0 | 0.00 | 0.00 | 0.00 | 82 | 1011.0 |
| 20260506122224 | 42 | 20 | 0.0 | 0.0 | 0.00 | 0.00 | 0.00 | 82 | 1011.0 |
| 20260506121722 | 42 | 26 | 2.0 | 3.0 | 0.00 | 0.00 | 0.00 | 80 | 1011.1 |
| 20260506121218 | 42 | 29 | 0.0 | 1.0 | 0.00 | 0.00 | 0.00 | 78 | 1011.1 |
| 20260506120716 | 42 | 73 | 0.0 | 2.0 | 0.00 | 0.00 | 0.00 | 77 | 1011.0 |
| 20260506120213 | 43 | 7 | 0.0 | 2.0 | 0.00 | 0.00 | 0.00 | 77 | 1010.9 |
| 20260506115711 | 43 | 6 | 1.0 | 3.0 | 0.00 | 0.00 | 0.00 | 74 | 1010.9 |
| 20260506115209 | 44 | 312 | 0.0 | 4.0 | 0.00 | 0.00 | 0.00 | 73 | 1010.9 |
| 20260506114706 | 44 | 289 | 1.0 | 1.0 | 0.00 | 0.00 | 0.00 | 72 | 1010.8 |
| 20260506114204 | 44 | 189 | 3.0 | 3.0 | 0.00 | 0.00 | 0.00 | 72 | 1010.7 |
| 20260506113703 | 44 | 18 | 0.0 | 2.0 | 0.00 | 0.00 | 0.00 | 71 | 1010.8 |
| 20260506113200 | 44 | 54 | 0.0 | 2.0 | 0.00 | 0.00 | 0.00 | 73 | 1010.6 |
| 20260506112655 | 44 | 30 | 2.0 | 2.0 | 0.00 | 0.00 | 0.00 | 73 | 1010.6 |
| 20260506112153 | 44 | 294 | 0.0 | 3.0 | 0.00 | 0.00 | 0.00 | 74 | 1010.4 |
| 20260506111651 | 44 | 265 | 2.0 | 2.0 | 0.00 | 0.00 | 0.00 | 73 | 1010.2 |
| 20260506111149 | 44 | 263 | 3.0 | 4.0 | 0.00 | 0.00 | 0.00 | 72 | 1010.2 |
| 20260506110646 | 44 | 194 | 0.0 | 2.0 | 0.00 | 0.00 | 0.00 | 71 | 1010.2 |
| 20260506110143 | 44 | 151 | 1.0 | 4.0 | 0.00 | 0.00 | 0.00 | 71 | 1010.1 |
| 20260506105639 | 44 | 270 | 0.0 | 1.0 | 0.00 | 0.00 | 0.00 | 69 | 1010.1 |
| 20260506105136 | 44 | 236 | 2.0 | 3.0 | 0.00 | 0.00 | 0.00 | 67 | 1010.1 |
| 20260506104634 | 44 | 48 | 0.0 | 2.0 | 0.00 | 0.00 | 0.00 | 67 | 1010.1 |
| 20260506104132 | 43 | 69 | 0.0 | 2.0 | 0.00 | 0.00 | 0.00 | 68 | 1009.9 |
| 20260506103629 | 43 | 69 | 0.0 | 2.0 | 0.00 | 0.00 | 0.00 | 69 | 1009.8 |
| 20260506103126 | 43 | 98 | 0.0 | 2.0 | 0.00 | 0.00 | 0.00 | 69 | 1009.9 |
| 20260506102624 | 43 | 133 | 0.0 | 4.0 | 0.00 | 0.00 | 0.00 | 69 | 1009.8 |
| 20260506102121 | 43 | 34 | 2.0 | 3.0 | 0.00 | 0.00 | 0.00 | 69 | 1009.8 |
| 20260506101617 | 43 | 66 | 1.0 | 2.0 | 0.00 | 0.00 | 0.00 | 69 | 1009.7 |
| 20260506101114 | 44 | 28 | 2.0 | 3.0 | 0.00 | 0.00 | 0.00 | 68 | 1009.7 |
| 20260506100613 | 44 | 66 | 0.0 | 3.0 | 0.00 | 0.00 | 0.00 | 66 | 1009.5 |
| 20260506100110 | 45 | 26 | 2.0 | 3.0 | 0.00 | 0.00 | 0.00 | 63 | 1009.5 |
| 20260506095609 | 46 | 77 | 0.0 | 4.0 | 0.00 | 0.00 | 0.00 | 62 | 1009.4 |
| 20260506095105 | 46 | 5 | 0.0 | 6.0 | 0.00 | 0.00 | 0.00 | 61 | 1009.4 |
| 20260506094603 | 46 | 150 | 2.0 | 4.0 | 0.00 | 0.00 | 0.00 | 62 | 1009.4 |
| 20260506094101 | 46 | 12 | 1.0 | 5.0 | 0.00 | 0.00 | 0.00 | 61 | 1009.2 |
| 20260506093559 | 46 | 68 | 3.0 | 3.0 | 0.00 | 0.00 | 0.00 | 60 | 1009.2 |
| 20260506093055 | 46 | 145 | 3.0 | 10.0 | 0.00 | 0.00 | 0.00 | 60 | 1009.2 |
| 20260506092554 | 46 | 103 | 3.0 | 5.0 | 0.00 | 0.00 | 0.00 | 61 | 1009.2 |
| 20260506092050 | 46 | 143 | 2.0 | 4.0 | 0.00 | 0.00 | 0.00 | 61 | 1009.1 |
| 20260506091548 | 46 | 191 | 2.0 | 12.0 | 0.00 | 0.00 | 0.00 | 61 | 1009.1 |
| 20260506091045 | 46 | 150 | 3.0 | 8.0 | 0.00 | 0.00 | 0.00 | 62 | 1009.3 |
| 20260506090543 | 45 | 98 | 2.0 | 8.0 | 0.00 | 0.00 | 0.00 | 62 | 1009.0 |
| 20260506090039 | 45 | 60 | 1.0 | 9.0 | 0.00 | 0.00 | 0.00 | 62 | 1009.2 |
| 20260506085536 | 45 | 135 | 2.0 | 8.0 | 0.00 | 0.00 | 0.00 | 62 | 1008.9 |
| 20260506085032 | 45 | 143 | 3.0 | 7.0 | 0.00 | 0.00 | 0.00 | 62 | 1009.0 |
| 20260506084530 | 45 | 90 | 3.0 | 9.0 | 0.00 | 0.00 | 0.00 | 62 | 1008.9 |
| 20260506084025 | 45 | 74 | 0.0 | 6.0 | 0.00 | 0.00 | 0.00 | 63 | 1009.1 |
| 20260506083523 | 46 | 150 | 4.0 | 9.0 | 0.00 | 0.00 | 0.00 | 62 | 1008.8 |
| 20260506083020 | 46 | 148 | 8.0 | 9.0 | 0.00 | 0.00 | 0.00 | 62 | 1009.0 |
| 20260506082517 | 46 | 135 | 2.0 | 9.0 | 0.00 | 0.00 | 0.00 | 63 | 1008.7 |
| 20260506082013 | 46 | 152 | 4.0 | 7.0 | 0.00 | 0.00 | 0.00 | 62 | 1008.9 |
| 20260506081511 | 46 | 147 | 4.0 | 10.0 | 0.00 | 0.00 | 0.00 | 63 | 1008.7 |
| 20260506081009 | 46 | 15 | 2.0 | 10.0 | 0.00 | 0.00 | 0.00 | 63 | 1008.7 |
| 20260506080506 | 45 | 141 | 2.0 | 4.0 | 0.00 | 0.00 | 0.00 | 64 | 1008.7 |
| 20260506073449 | 46 | 148 | 3.0 | 6.0 | 0.00 | 0.00 | 0.00 | 63 | 1008.6 |
| 20260506072946 | 46 | 125 | 0.0 | 10.0 | 0.00 | 0.00 | 0.00 | 63 | 1008.4 |
| 20260506072443 | 45 | 199 | 5.0 | 6.0 | 0.00 | 0.00 | 0.00 | 64 | 1008.7 |
| 20260506071941 | 45 | 125 | 3.0 | 9.0 | 0.00 | 0.00 | 0.00 | 64 | 1008.6 |
| 20260506071439 | 45 | 167 | 3.0 | 8.0 | 0.00 | 0.00 | 0.00 | 64 | 1008.3 |
| 20260506070936 | 45 | 154 | 3.0 | 9.0 | 0.00 | 0.00 | 0.00 | 65 | 1008.4 |
| 20260506070433 | 45 | 128 | 2.0 | 9.0 | 0.00 | 0.00 | 0.00 | 64 | 1008.2 |
| 20260506062410 | 46 | 93 | 3.0 | 10.0 | 0.00 | 0.00 | 0.00 | 64 | 1007.9 |
| 20260506061906 | 46 | 146 | 5.0 | 13.0 | 0.00 | 0.00 | 0.00 | 63 | 1008.0 |
| 20260506061403 | 46 | 33 | 6.0 | 7.0 | 0.00 | 0.00 | 0.00 | 63 | 1007.8 |
| 20260506060901 | 46 | 127 | 2.0 | 10.0 | 0.00 | 0.00 | 0.00 | 63 | 1007.7 |
| 20260506060358 | 46 | 135 | 3.0 | 10.0 | 0.00 | 0.00 | 0.00 | 63 | 1007.6 |
| 20260506051330 | 47 | 106 | 0.0 | 8.0 | 0.00 | 0.00 | 0.00 | 63 | 1007.4 |
| 20260506050828 | 48 | 15 | 2.0 | 8.0 | 0.00 | 0.00 | 0.00 | 63 | 1007.3 |
| 20260506050325 | 48 | 132 | 6.0 | 10.0 | 0.00 | 0.00 | 0.00 | 62 | 1007.2 |
| 20260506044815 | 48 | 6 | 0.0 | 6.0 | 0.00 | 0.00 | 0.00 | 62 | 1007.2 |
| 20260506044314 | 48 | 75 | 2.0 | 9.0 | 0.00 | 0.00 | 0.00 | 61 | 1007.2 |
| 20260506043810 | 48 | 122 | 4.0 | 10.0 | 0.00 | 0.00 | 0.00 | 61 | 1006.9 |
| 20260506043308 | 48 | 86 | 5.0 | 13.0 | 0.00 | 0.00 | 0.00 | 61 | 1007.1 |
| 20260506042806 | 48 | 79 | 7.0 | 7.0 | 0.00 | 0.00 | 0.00 | 62 | 1006.8 |
| 20260506042305 | 48 | 72 | 5.0 | 9.0 | 0.00 | 0.00 | 0.00 | 62 | 1007.0 |
| 20260506041803 | 49 | 165 | 6.0 | 10.0 | 0.00 | 0.00 | 0.00 | 61 | 1006.8 |
| 20260506041259 | 49 | 158 | 6.0 | 6.0 | 0.00 | 0.00 | 0.00 | 61 | 1006.9 |
| 20260506040757 | 49 | 81 | 0.0 | 13.0 | 0.00 | 0.00 | 0.00 | 61 | 1006.7 |
| 20260506040254 | 49 | 144 | 3.0 | 8.0 | 0.00 | 0.00 | 0.00 | 61 | 1006.9 |
| 20260506035750 | 50 | 14 | 4.0 | 16.0 | 0.00 | 0.00 | 0.00 | 61 | 1006.6 |
| 20260506035247 | 50 | 74 | 3.0 | 7.0 | 0.00 | 0.00 | 0.00 | 61 | 1006.6 |
| 20260506034744 | 50 | 122 | 4.0 | 10.0 | 0.00 | 0.00 | 0.00 | 59 | 1006.6 |
| 20260506034242 | 50 | 127 | 3.0 | 10.0 | 0.00 | 0.00 | 0.00 | 57 | 1006.6 |
| 20260506033738 | 51 | 283 | 1.0 | 9.0 | 0.00 | 0.00 | 0.00 | 58 | 1006.6 |
| 20260506033236 | 51 | 151 | 5.0 | 11.0 | 0.00 | 0.00 | 0.00 | 57 | 1006.5 |
| 20260506032732 | 51 | 21 | 5.0 | 8.0 | 0.00 | 0.00 | 0.00 | 58 | 1006.4 |
| 20260506032229 | 51 | 109 | 1.0 | 10.0 | 0.00 | 0.00 | 0.00 | 59 | 1006.4 |
| 20260506031726 | 50 | 113 | 3.0 | 11.0 | 0.00 | 0.00 | 0.00 | 58 | 1006.6 |
| 20260506031223 | 51 | 95 | 2.0 | 11.0 | 0.00 | 0.00 | 0.00 | 58 | 1006.3 |
| 20260506030722 | 51 | 0 | 2.0 | 7.0 | 0.00 | 0.00 | 0.00 | 57 | 1006.2 |
| 20260506030219 | 51 | 98 | 3.0 | 8.0 | 0.00 | 0.00 | 0.00 | 57 | 1006.2 |
| 20260506025715 | 51 | 137 | 5.0 | 15.0 | 0.00 | 0.00 | 0.00 | 57 | 1006.2 |
| 20260506025212 | 51 | 18 | 2.0 | 8.0 | 0.00 | 0.00 | 0.00 | 58 | 1006.2 |
| 20260506024709 | 51 | 139 | 7.0 | 8.0 | 0.00 | 0.00 | 0.00 | 57 | 1006.1 |
| 20260506024205 | 52 | 40 | 3.0 | 7.0 | 0.00 | 0.00 | 0.00 | 57 | 1005.9 |
| 20260506023702 | 51 | 130 | 3.0 | 10.0 | 0.00 | 0.00 | 0.00 | 57 | 1006.1 |
| 20260506023159 | 51 | 140 | 6.0 | 12.0 | 0.00 | 0.00 | 0.00 | 56 | 1006.0 |
| 20260506022656 | 51 | 156 | 2.0 | 15.0 | 0.00 | 0.00 | 0.00 | 57 | 1006.2 |
| 20260506022153 | 52 | 114 | 3.0 | 11.0 | 0.00 | 0.00 | 0.00 | 56 | 1005.9 |
| 20260506021651 | 51 | 328 | 4.0 | 12.0 | 0.00 | 0.00 | 0.00 | 56 | 1006.1 |
| 20260506021148 | 51 | 125 | 4.0 | 10.0 | 0.00 | 0.00 | 0.00 | 56 | 1006.1 |
| 20260506020645 | 52 | 65 | 2.0 | 7.0 | 0.00 | 0.00 | 0.00 | 57 | 1006.0 |
| 20260506020143 | 52 | 115 | 4.0 | 9.0 | 0.00 | 0.00 | 0.00 | 56 | 1006.0 |
| 20260506015640 | 52 | 160 | 9.0 | 10.0 | 0.00 | 0.00 | 0.00 | 56 | 1005.9 |
| 20260506015137 | 52 | 141 | 5.0 | 11.0 | 0.00 | 0.00 | 0.00 | 55 | 1005.9 |
| 20260506014635 | 52 | 140 | 8.0 | 8.0 | 0.00 | 0.00 | 0.00 | 55 | 1006.0 |
| 20260506014130 | 52 | 70 | 7.0 | 18.0 | 0.00 | 0.00 | 0.00 | 55 | 1005.9 |
| 20260506013629 | 53 | 83 | 0.0 | 10.0 | 0.00 | 0.00 | 0.00 | 55 | 1006.0 |
| 20260506013125 | 53 | 160 | 4.0 | 15.0 | 0.00 | 0.00 | 0.00 | 54 | 1005.9 |
| 20260506012621 | 53 | 154 | 5.0 | 17.0 | 0.00 | 0.00 | 0.00 | 55 | 1006.0 |
| 20260506012118 | 53 | 355 | 1.0 | 9.0 | 0.00 | 0.00 | 0.00 | 56 | 1006.0 |
| 20260506011616 | 52 | 112 | 4.0 | 13.0 | 0.00 | 0.00 | 0.00 | 55 | 1006.1 |
| 20260506011112 | 53 | 306 | 4.0 | 15.0 | 0.00 | 0.00 | 0.00 | 55 | 1006.1 |
| 20260506010606 | 54 | 176 | 6.0 | 10.0 | 0.00 | 0.00 | 0.00 | 54 | 1006.1 |
| 20260506005559 | 54 | 37 | 0.0 | 18.0 | 0.00 | 0.00 | 0.00 | 54 | 1006.1 |
| 20260506005055 | 55 | 246 | 2.0 | 15.0 | 0.00 | 0.00 | 0.00 | 53 | 1005.9 |
| 20260506004552 | 54 | 144 | 4.0 | 14.0 | 0.00 | 0.00 | 0.00 | 52 | 1006.0 |
| 20260506004049 | 54 | 95 | 0.0 | 10.0 | 0.00 | 0.00 | 0.00 | 54 | 1005.9 |
| 20260506003545 | 53 | 27 | 3.0 | 12.0 | 0.00 | 0.00 | 0.00 | 55 | 1006.1 |
| 20260506003042 | 53 | 199 | 2.0 | 12.0 | 0.00 | 0.00 | 0.00 | 55 | 1005.9 |
| 20260506002537 | 54 | 142 | 7.0 | 10.0 | 0.00 | 0.00 | 0.00 | 53 | 1006.0 |
| 20260506002034 | 54 | 201 | 2.0 | 6.0 | 0.00 | 0.00 | 0.00 | 52 | 1005.7 |
| 20260506001530 | 54 | 274 | 6.0 | 10.0 | 0.00 | 0.00 | 0.00 | 53 | 1006.0 |
| 20260506001027 | 54 | 140 | 5.0 | 14.0 | 0.00 | 0.00 | 0.00 | 52 | 1005.9 |
| 20260506000525 | 54 | 132 | 5.0 | 20.0 | 0.00 | 0.00 | 0.00 | 52 | 1006.0 |
| 20260506000022 | 54 | 103 | 3.0 | 11.0 | 0.00 | 0.00 | 0.00 | 52 | 1005.8 |
| 20260505235520 | 54 | 0 | 1.0 | 13.0 | 0.00 | 0.00 | 0.00 | 54 | 1005.7 |
| 20260505235016 | 53 | 142 | 4.0 | 18.0 | 0.00 | 0.00 | 0.00 | 55 | 1005.9 |
| 20260505234514 | 53 | 143 | 5.0 | 7.0 | 0.00 | 0.00 | 0.00 | 57 | 1005.7 |
| 20260505234010 | 53 | 112 | 4.0 | 15.0 | 0.00 | 0.00 | 0.00 | 55 | 1005.7 |
| 20260505233508 | 53 | 90 | 1.0 | 16.0 | 0.00 | 0.00 | 0.00 | 55 | 1005.8 |
| 20260505233005 | 54 | 43 | 5.0 | 17.0 | 0.00 | 0.00 | 0.00 | 54 | 1005.6 |
| 20260505232503 | 53 | 139 | 4.0 | 12.0 | 0.00 | 0.00 | 0.00 | 56 | 1005.6 |
| 20260505232000 | 53 | 144 | 4.0 | 16.0 | 0.00 | 0.00 | 0.00 | 55 | 1005.8 |
| 20260505231457 | 53 | 138 | 11.0 | 18.0 | 0.00 | 0.00 | 0.00 | 54 | 1005.6 |
| 20260505230955 | 53 | 325 | 0.0 | 20.0 | 0.00 | 0.00 | 0.00 | 54 | 1005.6 |
| 20260505230453 | 54 | 172 | 3.0 | 14.0 | 0.00 | 0.00 | 0.00 | 53 | 1005.6 |
| 20260505225949 | 54 | 124 | 4.0 | 20.0 | 0.00 | 0.00 | 0.00 | 54 | 1005.6 |
| 20260505225446 | 53 | 195 | 6.0 | 11.0 | 0.00 | 0.00 | 0.00 | 54 | 1005.3 |
| 20260505224942 | 52 | 131 | 5.0 | 12.0 | 0.00 | 0.00 | 0.00 | 55 | 1005.6 |
| 20260505224439 | 52 | 127 | 7.0 | 14.0 | 0.00 | 0.00 | 0.00 | 54 | 1005.5 |
| 20260505223937 | 52 | 150 | 14.0 | 14.0 | 0.00 | 0.00 | 0.00 | 55 | 1005.9 |
| 20260505223433 | 52 | 204 | 0.0 | 18.0 | 0.00 | 0.00 | 0.00 | 55 | 1005.6 |
| 20260505222930 | 52 | 292 | 3.0 | 11.0 | 0.00 | 0.00 | 0.00 | 56 | 1005.5 |
| 20260505222426 | 52 | 137 | 6.0 | 22.0 | 0.00 | 0.00 | 0.00 | 56 | 1005.4 |
| 20260505221922 | 52 | 94 | 7.0 | 16.0 | 0.00 | 0.00 | 0.00 | 54 | 1005.4 |
| 20260505221419 | 53 | 158 | 7.0 | 10.0 | 0.00 | 0.00 | 0.00 | 55 | 1005.2 |
| 20260505220916 | 53 | 150 | 14.0 | 17.0 | 0.00 | 0.00 | 0.00 | 54 | 1005.5 |
| 20260505220413 | 53 | 129 | 4.0 | 14.0 | 0.00 | 0.00 | 0.00 | 53 | 1005.6 |
| 20260505215911 | 53 | 141 | 11.0 | 17.0 | 0.00 | 0.00 | 0.00 | 53 | 1005.4 |
| 20260505215409 | 53 | 141 | 11.0 | 17.0 | 0.00 | 0.00 | 0.00 | 53 | 1005.3 |
| 20260505214907 | 53 | 151 | 11.0 | 15.0 | 0.00 | 0.00 | 0.00 | 53 | 1005.3 |
| 20260505214404 | 52 | 115 | 11.0 | 14.0 | 0.00 | 0.00 | 0.00 | 53 | 1005.3 |
| 20260505213901 | 53 | 208 | 4.0 | 17.0 | 0.00 | 0.00 | 0.00 | 53 | 1005.1 |
| 20260505213359 | 53 | 179 | 6.0 | 17.0 | 0.00 | 0.00 | 0.00 | 53 | 1005.2 |
| 20260505212855 | 52 | 151 | 8.0 | 20.0 | 0.00 | 0.00 | 0.00 | 53 | 1005.0 |